Weather History for Lancaster, OH

Change the Weather History Date:

Thursday, October 10, 2013

  Actual Average Record
Temperature  
Mean Temperature 57 °F -  
Max Temperature 75 °F 65 °F 89 °F (1939)
Min Temperature 39 °F 42 °F 30 °F (2012)
Degree Days  
Heating Degree Days 8    
Growing Degree Days 7 (Base 50)    
Moisture  
Dew Point 44 °F    
Average Humidity 74    
Maximum Humidity 96    
Minimum Humidity 38    
Precipitation  
Precipitation 0.00 in - - ()
Sea Level Pressure  
Sea Level Pressure 30.16 in    
Wind  
Wind Speed 1 mph (NNE)    
Max Wind Speed 6 mph    
Max Gust Speed -    
Visibility 10 miles    
Events      
Averages and records for this station are not official NWS values.
T = Trace of Precipitation, MM = Missing Value Source: NWS Daily Summary

Daily Weather History Graph

Daily Weather History Graph

Search for Another Location

Airport:

Trip Planner

Search our weather history database for the weather conditions in past years. The results will help you decide how hot, cold, wet, or windy it might be!

Date:

Astronomy

Oct. 10, 2013 Rise Set
Actual Time 7:35 AM EDT 6:58 PM EDT
Civil Twilight 7:08 AM EDT 7:25 PM EDT
Nautical Twilight 6:37 AM EDT 7:56 PM EDT
Astronomical Twilight 6:06 AM EDT 8:27 PM EDT
Moon 1:26 PM EDT (10/10) 11:35 PM EDT (10/10)
Length of Visible Light 12h 16m
Length of Day
11h 22m
Waxing Crescent, 35% of the Moon is Illuminated
Oct 10
Waxing Crescent
Oct 11
First Quarter
Oct 18
Full
Oct 26
Last Quarter
Nov 3
New

Hourly Weather History & Observations

Time (EDT) Temp. Dew Point Humidity Pressure Visibility Wind Dir Wind Speed Gust Speed Precip Events Conditions
12:53 AM 41.0 °F 39.9 °F 96% 30.19 in 10.0 mi Calm Calm - N/A   Clear
1:53 AM 39.9 °F 37.9 °F 93% 30.19 in 10.0 mi Calm Calm - N/A   Clear
2:53 AM 39.0 °F 37.0 °F 93% 30.19 in 10.0 mi Calm Calm - N/A   Clear
3:53 AM 39.0 °F 37.0 °F 93% 30.17 in 9.0 mi Calm Calm - N/A   Clear
4:53 AM 39.0 °F 37.0 °F 93% 30.19 in 10.0 mi Calm Calm - N/A   Clear
5:53 AM 39.0 °F 37.9 °F 96% 30.19 in 10.0 mi Calm Calm - N/A   Clear
6:53 AM 39.0 °F 37.9 °F 96% 30.20 in 10.0 mi Calm Calm - N/A   Clear
7:53 AM 39.0 °F 37.9 °F 96% 30.21 in 9.0 mi Calm Calm - N/A   Clear
8:53 AM 46.0 °F 45.0 °F 96% 30.21 in 9.0 mi Calm Calm - N/A   Clear
9:53 AM 53.1 °F 48.9 °F 86% 30.21 in 10.0 mi Calm Calm - N/A   Clear
10:53 AM 61.0 °F 46.9 °F 60% 30.20 in 10.0 mi North 3.5 mph - N/A   Clear
11:53 AM 64.9 °F 43.0 °F 45% 30.19 in 10.0 mi Variable 3.5 mph - N/A   Clear
12:53 PM 68.0 °F 42.1 °F 39% 30.18 in 10.0 mi Calm Calm - N/A   Clear
1:53 PM 71.1 °F 46.0 °F 41% 30.16 in 10.0 mi North 5.8 mph - N/A   Clear
2:53 PM 73.9 °F 46.9 °F 38% 30.14 in 10.0 mi ENE 4.6 mph - N/A   Clear
3:53 PM 73.9 °F 50.0 °F 43% 30.12 in 10.0 mi Calm Calm - N/A   Clear
4:53 PM 75.0 °F 48.9 °F 40% 30.11 in 10.0 mi Calm Calm - N/A   Clear
5:53 PM 73.0 °F 50.0 °F 44% 30.10 in 10.0 mi Calm Calm - N/A   Clear
6:53 PM 66.9 °F 48.9 °F 52% 30.10 in 10.0 mi Calm Calm - N/A   Clear
7:53 PM 57.0 °F 51.1 °F 81% 30.11 in 10.0 mi Calm Calm - N/A   Clear
8:53 PM 54.0 °F 51.1 °F 90% 30.09 in 10.0 mi Calm Calm - N/A   Clear
9:53 PM 52.0 °F 50.0 °F 93% 30.10 in 10.0 mi Calm Calm - N/A   Clear
10:53 PM 51.1 °F 48.9 °F 92% 30.09 in 10.0 mi Calm Calm - N/A   Clear
11:53 PM 50.0 °F 46.9 °F 89% 30.09 in 10.0 mi Calm Calm - N/A   Clear